TimeEDT,TemperatureF,Dew PointF,Humidity,Sea Level PressureIn,VisibilityMPH,Wind Direction,Wind SpeedMPH,Gust SpeedMPH,PrecipitationIn,Events,Conditions,WindDirDegrees,DateUTC
12:09 AM,37.4,32.0,81,29.84,1.8,ENE,3.5,-,0.00,,Overcast,70,2013-03-16 04:09:00
12:33 AM,37.4,33.8,87,29.83,2.0,East,3.5,-,0.00,Rain,Light Rain,80,2013-03-16 04:33:00
12:53 AM,37.0,33.1,86,29.84,1.8,East,3.5,-,0.01,,Overcast,80,2013-03-16 04:53:00
1:44 AM,35.6,30.2,81,29.82,2.5,ENE,12.7,-,0.00,Snow,Light Snow,60,2013-03-16 05:44:00
1:53 AM,35.1,30.0,82,29.83,2.5,ENE,11.5,-,0.00,Snow,Light Snow,60,2013-03-16 05:53:00
2:53 AM,33.1,28.0,82,29.82,2.0,ENE,12.7,-,0.00,Snow,Light Snow,60,2013-03-16 06:53:00
2:57 AM,33.8,28.4,81,29.81,1.8,ENE,15.0,-,0.00,Snow,Light Snow,70,2013-03-16 06:57:00
3:02 AM,32.0,28.4,87,29.80,2.0,ENE,13.8,-,0.00,Snow,Light Snow,60,2013-03-16 07:02:00
3:25 AM,32.0,26.6,80,29.80,5.0,ENE,11.5,20.7,0.00,Snow,Light Snow,60,2013-03-16 07:25:00
3:41 AM,32.0,26.6,80,29.79,5.0,ENE,13.8,-,0.00,,Haze,60,2013-03-16 07:41:00
3:53 AM,32.0,27.0,82,29.80,4.0,ENE,12.7,-,0.00,,Haze,60,2013-03-16 07:53:00
4:12 AM,30.2,26.6,86,29.79,1.8,ENE,15.0,-,0.00,Snow,Light Snow,60,2013-03-16 08:12:00
4:25 AM,30.2,26.6,86,29.78,0.8,ENE,12.7,-,0.00,Snow,Light Snow,60,2013-03-16 08:25:00
4:37 AM,30.2,26.6,86,29.78,1.0,NE,9.2,-,0.00,Snow,Light Snow,50,2013-03-16 08:37:00
4:53 AM,30.9,26.1,82,29.81,1.2,NE,12.7,-,0.00,Snow,Light Snow,50,2013-03-16 08:53:00
5:09 AM,30.2,26.6,86,29.79,1.8,ENE,10.4,-,0.00,Snow,Light Snow,60,2013-03-16 09:09:00
5:49 AM,30.2,26.6,86,29.77,0.8,ENE,11.5,-,0.00,Snow,Light Snow,60,2013-03-16 09:49:00
5:53 AM,30.9,26.1,82,29.78,0.8,ENE,10.4,-,0.00,Snow,Light Snow,60,2013-03-16 09:53:00
5:56 AM,30.2,26.6,86,29.77,1.0,ENE,11.5,-,0.00,Snow,Light Snow,60,2013-03-16 09:56:00
6:08 AM,30.2,26.6,86,29.75,0.8,NE,10.4,-,0.00,Snow,Light Snow,50,2013-03-16 10:08:00
6:13 AM,30.2,26.6,86,29.75,1.0,NE,12.7,-,0.00,Snow,Light Snow,50,2013-03-16 10:13:00
6:21 AM,30.2,24.8,80,29.76,2.0,NE,15.0,-,0.00,Snow,Light Snow,50,2013-03-16 10:21:00
6:38 AM,30.2,24.8,80,29.76,4.0,NE,12.7,-,0.00,Snow,Light Snow,50,2013-03-16 10:38:00
6:53 AM,30.0,25.0,82,29.78,3.0,NE,11.5,-,0.00,Snow,Light Snow,50,2013-03-16 10:53:00
7:05 AM,30.2,24.8,80,29.76,3.0,NE,11.5,-,0.00,Snow,Light Snow,50,2013-03-16 11:05:00
7:17 AM,30.2,24.8,80,29.76,2.0,NE,12.7,-,0.00,Snow,Light Snow,50,2013-03-16 11:17:00
7:24 AM,30.2,24.8,80,29.75,1.5,ENE,12.7,-,0.00,Snow,Light Snow,60,2013-03-16 11:24:00
7:35 AM,30.2,24.8,80,29.76,3.0,NE,11.5,-,0.00,Snow,Light Snow,50,2013-03-16 11:35:00
7:53 AM,30.0,25.0,82,29.78,4.0,NE,11.5,-,0.00,Snow,Light Snow,50,2013-03-16 11:53:00
8:01 AM,30.2,24.8,80,29.77,4.0,ENE,10.4,-,0.00,Snow,Light Snow,60,2013-03-16 12:01:00
8:12 AM,30.2,24.8,80,29.77,1.8,NE,11.5,-,0.00,Snow,Light Snow,50,2013-03-16 12:12:00
8:29 AM,30.2,26.6,86,29.77,1.5,ENE,9.2,-,0.00,Snow,Light Snow,60,2013-03-16 12:29:00
8:41 AM,30.2,24.8,80,29.77,2.0,NE,11.5,-,0.00,Snow,Light Snow,50,2013-03-16 12:41:00
8:53 AM,30.0,25.0,82,29.79,3.0,NE,11.5,-,0.00,Snow,Light Snow,50,2013-03-16 12:53:00
9:17 AM,30.2,24.8,80,29.77,7.0,ENE,11.5,-,0.00,,Overcast,60,2013-03-16 13:17:00
9:53 AM,30.9,25.0,79,29.78,10.0,NE,11.5,-,0.00,,Overcast,50,2013-03-16 13:53:00
10:53 AM,30.9,25.0,79,29.80,10.0,NNE,12.7,-,N/A,,Overcast,30,2013-03-16 14:53:00
11:19 AM,30.2,24.8,80,29.78,2.5,NE,16.1,-,N/A,,Haze,40,2013-03-16 15:19:00
11:40 AM,30.2,24.8,80,29.79,4.0,NNE,12.7,-,N/A,,Haze,30,2013-03-16 15:40:00
11:53 AM,30.0,25.0,82,29.80,5.0,NNE,13.8,-,N/A,,Haze,30,2013-03-16 15:53:00
12:53 PM,32.0,24.1,73,29.84,9.0,NNE,12.7,-,N/A,,Overcast,20,2013-03-16 16:53:00
1:53 PM,32.0,26.1,79,29.88,5.0,North,6.9,-,N/A,,Haze,10,2013-03-16 17:53:00
2:26 PM,32.0,26.6,80,29.86,3.0,North,10.4,-,N/A,,Haze,360,2013-03-16 18:26:00
2:33 PM,32.0,26.6,80,29.86,2.5,North,6.9,-,N/A,,Haze,360,2013-03-16 18:33:00
2:41 PM,33.8,26.6,75,29.86,4.0,North,9.2,-,N/A,,Haze,360,2013-03-16 18:41:00
2:53 PM,33.1,27.0,78,29.88,4.0,North,9.2,-,N/A,,Haze,10,2013-03-16 18:53:00
3:22 PM,33.8,24.8,70,29.87,10.0,North,12.7,-,0.02,,Overcast,10,2013-03-16 19:22:00
3:53 PM,34.0,25.0,70,29.90,10.0,NNW,10.4,-,0.04,,Overcast,330,2013-03-16 19:53:00
4:53 PM,34.0,25.0,70,29.92,10.0,NNW,9.2,-,0.01,,Overcast,330,2013-03-16 20:53:00
5:53 PM,35.1,25.0,67,29.94,10.0,NNW,8.1,-,0.02,,Overcast,330,2013-03-16 21:53:00
6:53 PM,34.0,24.1,67,29.97,10.0,NW,6.9,-,0.01,,Overcast,320,2013-03-16 22:53:00
7:53 PM,33.1,24.1,70,29.99,10.0,NW,8.1,-,N/A,,Overcast,310,2013-03-16 23:53:00
8:53 PM,32.0,21.9,66,30.01,10.0,NW,9.2,-,N/A,,Overcast,310,2013-03-17 00:53:00
9:53 PM,32.0,21.0,64,30.03,10.0,NW,6.9,-,N/A,,Overcast,310,2013-03-17 01:53:00
10:42 PM,30.2,17.6,60,30.02,10.0,SW,4.6,-,N/A,,Scattered Clouds,230,2013-03-17 02:42:00
10:53 PM,28.9,18.0,64,30.05,10.0,SW,3.5,-,N/A,,Clear,230,2013-03-17 02:53:00
11:53 PM,28.9,19.9,69,30.04,10.0,SSW,6.9,-,N/A,,Overcast,200,2013-03-17 03:53:00